EA1QW Weather Reports


Display with metric or nautical units.
time (UTC)temp
F
wind
direction
speed
MPH
gust
MPH
rain 1hr
in
rain 24hr
in
rain mn
in
humidity
%
barometer
mb
20260502212024 59 317 0.0 0.0 0.20 1.38 0.28 97 1013.0
20260502211509 59 317 0.0 0.0 0.20 1.38 0.28 97 1013.0
20260502211016 59 317 0.0 0.0 0.20 1.38 0.28 96 1013.0
20260502210525 59 317 0.0 0.0 0.16 1.34 0.27 96 1013.0
20260502210012 59 317 0.0 0.0 0.20 1.34 0.27 96 1012.9
20260502205520 59 317 0.0 0.0 0.20 1.34 0.27 96 1012.8
20260502205009 59 317 0.0 0.0 0.20 1.34 0.27 96 1012.8
20260502204517 59 317 0.0 0.0 0.16 1.30 0.26 96 1012.8
20260502204025 59 317 0.0 0.0 0.08 1.22 0.24 96 1012.7
20260502203513 59 317 0.0 0.0 0.08 1.22 0.24 96 1012.9
20260502203041 59 317 0.0 0.0 0.08 1.22 0.24 96 1012.8
20260502202508 59 317 0.0 0.0 0.04 1.18 0.24 96 1012.9
20260502202015 59 317 0.0 0.0 0.04 1.18 0.24 96 1012.8
20260502201503 59 317 0.0 0.0 0.04 1.18 0.24 96 1012.8
20260502201012 59 317 0.0 0.0 0.04 1.18 0.24 96 1012.8
20260502200520 59 317 0.0 0.0 0.04 1.18 0.24 95 1012.9
20260502200007 59 317 0.0 0.0 0.00 1.14 0.23 95 1012.9
20260502195536 59 317 0.0 3.0 0.00 1.14 0.23 95 1012.8
20260502195003 59 317 0.0 4.0 0.00 1.14 0.23 95 1012.9
20260502194512 59 317 1.0 5.0 0.00 1.14 0.23 95 1012.9
20260502194019 59 317 3.0 5.0 0.00 1.14 0.23 95 1012.9
20260502193527 60 317 2.0 6.0 0.00 1.14 0.23 95 1012.9
20260502193012 60 318 2.0 6.0 0.00 1.14 0.23 95 1012.8
20260502192505 60 323 0.0 5.0 0.00 1.14 0.23 95 1012.8
20260502192013 60 323 2.0 6.0 0.00 1.14 0.23 95 1012.9
20260502191521 60 339 0.0 5.0 0.00 1.14 0.23 95 1012.8
20260502191009 60 340 1.0 5.0 0.00 1.14 0.23 94 1012.8
20260502190518 60 342 1.0 4.0 0.00 1.14 0.23 94 1012.8
20260502190006 61 342 1.0 4.0 0.00 1.14 0.23 93 1012.7
20260502185515 61 342 0.0 4.0 0.00 1.14 0.23 93 1012.7
20260502185018 61 342 2.0 4.0 0.00 1.14 0.23 92 1012.8
20260502184505 61 348 1.0 2.0 0.00 1.14 0.23 92 1012.7
20260502184012 61 348 0.0 0.0 0.00 1.14 0.23 92 1012.5
20260502183519 61 348 0.0 3.0 0.00 1.14 0.23 92 1012.5
20260502183006 61 348 0.0 3.0 0.00 1.14 0.23 91 1012.3
20260502182513 62 348 0.0 0.0 0.00 1.14 0.23 91 1012.5
20260502182039 62 348 0.0 3.0 0.00 1.14 0.23 90 1012.6
20260502181506 62 348 1.0 3.0 0.00 1.14 0.23 90 1012.6
20260502181015 62 348 1.0 5.0 0.00 1.14 0.23 89 1012.6
20260502180522 62 348 1.0 5.0 0.00 1.14 0.23 89 1012.6
20260502170515 61 21 0.0 1.0 0.00 1.14 0.23 95 1012.9
20260502164013 60 23 2.0 4.0 0.00 1.14 0.23 95 1012.9
20260502163521 60 23 0.0 4.0 0.00 1.14 0.23 95 1012.9
20260502163029 61 23 0.0 3.0 0.00 1.14 0.23 95 1012.8
20260502162516 61 23 0.0 3.0 0.00 1.14 0.23 97 1012.9
20260502162005 61 23 0.0 0.0 0.00 1.14 0.23 97 1012.9
20260502161513 60 23 0.0 3.0 0.00 1.14 0.23 98 1012.9
20260502161022 60 23 1.0 3.0 0.04 1.14 0.23 98 1012.9
20260502160510 60 23 1.0 5.0 0.08 1.14 0.23 98 1012.9
20260502152015 62 303 2.0 7.0 0.59 1.14 0.23 100 1013.2
20260502151544 61 257 1.0 7.0 0.59 1.14 0.23 100 1013.3
20260502151011 61 317 2.0 8.0 0.63 1.10 0.22 99 1013.3
20260502150519 60 348 4.0 8.0 0.67 1.06 0.21 98 1013.1
20260502130506 63 38 3.0 7.0 0.00 0.00 0.00 89 1013.2
20260502123513 62 60 4.0 10.0 0.00 0.00 0.00 91 1013.4
20260502123020 62 26 5.0 10.0 0.00 0.00 0.00 91 1013.2
20260502122507 62 360 3.0 11.0 0.00 0.00 0.00 92 1013.3
20260502122013 62 5 4.0 11.0 0.00 0.00 0.00 91 1013.1
20260502121521 62 350 4.0 9.0 0.00 0.00 0.00 90 1012.9
20260502121005 62 326 3.0 9.0 0.00 0.00 0.00 89 1013.2
20260502120513 62 17 4.0 9.0 0.00 0.00 0.00 89 1013.0
20260502115529 63 350 3.0 8.0 0.00 0.00 0.00 88 1013.5
20260502115034 63 355 3.0 8.0 0.00 0.00 0.00 89 1013.8
20260502114521 63 35 4.0 9.0 0.00 0.00 0.00 89 1013.9
20260502114029 63 343 4.0 9.0 0.00 0.00 0.00 88 1014.0
20260502113517 64 23 4.0 10.0 0.00 0.00 0.00 88 1014.0
20260502113025 64 296 7.0 10.0 0.00 0.00 0.00 87 1013.8
20260502112532 65 22 3.0 11.0 0.00 0.00 0.00 87 1013.8
20260502112019 64 36 4.0 11.0 0.00 0.00 0.00 86 1014.0
20260502111508 65 22 3.0 11.0 0.00 0.00 0.00 87 1014.2
20260502111034 65 309 5.0 11.0 0.00 0.00 0.00 86 1014.1
20260502110519 65 327 4.0 10.0 0.00 0.00 0.00 87 1014.0
20260502110007 64 27 6.0 10.0 0.00 0.00 0.00 86 1014.0
20260502105515 64 313 5.0 12.0 0.00 0.00 0.00 86 1014.0
20260502105004 65 347 4.0 12.0 0.00 0.00 0.00 85 1013.9
20260502104512 65 342 4.0 9.0 0.00 0.00 0.00 84 1013.9
20260502104020 66 344 3.0 9.0 0.00 0.00 0.00 83 1014.0
20260502103508 66 330 3.0 9.0 0.00 0.00 0.00 84 1014.0
20260502103015 66 294 3.0 9.0 0.00 0.00 0.00 85 1014.1
20260502102503 65 331 3.0 9.0 0.00 0.00 0.00 86 1014.1
20260502102008 65 28 3.0 6.0 0.00 0.00 0.00 86 1014.1
20260502101517 64 23 2.0 6.0 0.00 0.00 0.00 86 1014.1
20260502101009 64 19 3.0 6.0 0.00 0.00 0.00 85 1014.2
20260502100517 64 14 2.0 9.0 0.00 0.00 0.00 84 1014.0
20260502091516 66 250 3.0 5.0 0.00 0.00 0.00 78 1014.5
20260502091005 65 224 0.0 3.0 0.00 0.00 0.00 79 1014.4
20260502090512 65 224 1.0 3.0 0.00 0.00 0.00 80 1014.5
20260502071520 60 224 0.0 0.0 0.00 0.00 0.00 97 1014.1
20260502071008 60 224 0.0 0.0 0.00 0.00 0.00 97 1014.1
20260502070536 60 224 0.0 0.0 0.00 0.00 0.00 97 1014.2
20260502070023 60 224 0.0 2.0 0.00 0.00 0.00 97 1014.2
20260502065531 60 224 1.0 2.0 0.00 0.00 0.00 97 1014.2
20260502065015 60 224 0.0 0.0 0.00 0.00 0.00 98 1014.2
20260502064543 60 224 0.0 2.0 0.00 0.00 0.00 98 1014.2
20260502064010 60 224 1.0 2.0 0.00 0.00 0.00 98 1014.2
20260502063518 60 224 1.0 2.0 0.00 0.00 0.00 98 1014.2
20260502063025 60 224 0.0 3.0 0.00 0.00 0.00 98 1014.3
20260502062532 60 224 0.0 6.0 0.00 0.00 0.00 98 1014.3
20260502062018 60 224 2.0 6.0 0.00 0.00 0.00 98 1014.4
20260502061506 60 225 2.0 7.0 0.00 0.00 0.00 98 1014.4
20260502061014 60 269 1.0 3.0 0.00 0.00 0.00 99 1014.3
20260502060523 60 279 0.0 1.0 0.00 0.00 0.00 99 1014.3
20260502060009 60 281 0.0 1.0 0.00 0.00 0.00 99 1014.2
20260502055518 60 281 0.0 0.0 0.00 0.00 0.00 99 1014.2
20260502055006 60 281 0.0 0.0 0.00 0.00 0.00 99 1014.1
20260502054534 60 281 0.0 2.0 0.00 0.00 0.00 99 1014.0
20260502054021 60 281 0.0 3.0 0.00 0.00 0.00 99 1014.0
20260502053509 60 281 1.0 3.0 0.00 0.00 0.00 99 1014.1
20260502053014 60 281 0.0 3.0 0.00 0.00 0.00 99 1014.0
20260502052522 60 281 2.0 5.0 0.00 0.00 0.00 99 1013.9
20260502052010 60 281 1.0 5.0 0.00 0.00 0.00 99 1014.0
20260502051519 60 282 1.0 4.0 0.00 0.00 0.00 100 1013.9
20260502051007 60 282 1.0 4.0 0.00 0.00 0.00 100 1014.0
20260502050515 60 282 0.0 2.0 0.00 0.00 0.00 100 1014.0
20260502050043 60 282 0.0 3.0 0.00 0.00 0.00 100 1014.1
20260502045509 60 282 0.0 4.0 0.00 0.00 0.00 100 1014.1
20260502045016 60 320 1.0 4.0 0.00 0.00 0.00 100 1014.1
20260502044504 60 5 0.0 2.0 0.00 0.00 0.00 100 1014.1
20260502044031 60 5 0.0 0.0 0.00 0.00 0.00 100 1014.1
20260502043518 60 5 0.0 0.0 0.00 0.00 0.00 100 1014.1
20260502043006 60 5 0.0 0.0 0.00 0.00 0.00 100 1014.1
20260502042514 60 5 0.0 0.0 0.00 0.00 0.00 100 1014.1
20260502042022 60 5 0.0 0.0 0.00 0.00 0.00 100 1014.2
20260502041510 60 5 0.0 0.0 0.00 0.00 0.00 100 1014.1
20260502041017 60 5 0.0 0.0 0.00 0.00 0.00 100 1014.2
20260502040505 60 5 0.0 0.0 0.00 0.00 0.00 100 1014.2
20260502040013 60 5 0.0 0.0 0.00 0.00 0.00 100 1014.1
20260502035521 60 5 0.0 0.0 0.00 0.00 0.00 100 1014.2
20260502035008 60 5 0.0 0.0 0.00 0.00 0.00 100 1014.3
20260502034537 60 5 0.0 0.0 0.00 0.00 0.00 100 1014.3
20260502034005 60 5 0.0 0.0 0.00 0.00 0.00 100 1014.2
20260502033513 60 5 0.0 0.0 0.00 0.00 0.00 100 1014.3
20260502033022 60 5 0.0 0.0 0.00 0.00 0.00 100 1014.3
20260502032510 60 5 0.0 0.0 0.00 0.00 0.00 100 1014.4
20260502032034 60 5 0.0 0.0 0.00 0.00 0.00 100 1014.3
20260502031521 60 5 0.0 0.0 0.00 0.00 0.00 100 1014.4
20260502031007 60 5 0.0 0.0 0.00 0.00 0.00 100 1014.4
20260502030535 60 5 0.0 0.0 0.00 0.00 0.00 100 1014.4
20260502030043 60 5 0.0 0.0 0.00 0.00 0.00 100 1014.4
20260502025509 60 5 0.0 0.0 0.00 0.00 0.00 100 1014.4
20260502025016 60 5 0.0 0.0 0.00 0.00 0.00 100 1014.5
20260502024504 60 5 0.0 2.0 0.00 0.00 0.00 100 1014.4
20260502024012 60 5 0.0 2.0 0.00 0.00 0.00 100 1014.4
20260502023521 60 5 0.0 0.0 0.00 0.00 0.00 100 1014.6
20260502023009 60 5 0.0 1.0 0.00 0.00 0.00 100 1014.6
20260502022517 60 5 0.0 3.0 0.00 0.00 0.00 100 1014.6
20260502022006 60 5 1.0 3.0 0.00 0.00 0.00 100 1014.7
20260502021514 60 5 0.0 0.0 0.00 0.00 0.00 100 1014.6
20260502021022 60 5 0.0 2.0 0.00 0.00 0.00 100 1014.6
20260502020511 60 5 0.0 2.0 0.00 0.00 0.00 100 1014.8
20260502020010 60 5 0.0 2.0 0.00 0.00 0.00 100 1014.8
20260502015519 60 5 0.0 1.0 0.00 0.00 0.00 100 1014.8
20260502015011 61 5 0.0 0.0 0.00 0.00 0.00 100 1014.8
20260502014514 61 5 0.0 0.0 0.00 0.00 0.00 100 1014.7
20260502014006 61 5 0.0 4.0 0.00 0.00 0.00 100 1014.7
20260502013515 61 5 2.0 4.0 0.00 0.00 0.00 100 1014.8
20260502013015 61 51 0.0 1.0 0.00 0.00 0.00 100 1014.7
20260502012507 61 51 0.0 1.0 0.00 0.00 0.00 100 1014.7
20260502012032 61 51 0.0 0.0 0.00 0.00 0.00 99 1014.7
20260502011539 61 51 0.0 0.0 0.00 0.00 0.00 100 1014.8
20260502011006 61 51 0.0 0.0 0.00 0.00 0.00 99 1014.7
20260502010514 61 51 0.0 2.0 0.00 0.00 0.00 99 1014.8
20260502010043 61 51 0.0 2.0 0.00 0.00 0.00 99 1014.8
20260502005509 61 51 0.0 0.0 0.00 0.00 0.00 99 1014.8
20260502005015 61 51 0.0 0.0 0.00 0.00 0.00 99 1014.8
20260502004542 61 51 0.0 0.0 0.00 0.00 0.00 99 1015.0
20260502004010 61 51 0.0 0.0 0.00 0.00 0.00 99 1015.1
20260502003518 61 51 0.0 0.0 0.00 0.00 0.00 99 1015.1
20260502003010 61 51 0.0 0.0 0.00 0.00 0.00 99 1015.1
20260502002519 61 51 0.0 3.0 0.00 0.00 0.00 99 1015.1
20260502002006 61 51 1.0 3.0 0.00 0.00 0.00 99 1015.1
20260502001510 61 51 0.0 1.0 0.00 0.00 0.00 99 1015.2
20260502001014 61 51 0.0 1.0 0.00 0.00 0.00 99 1015.3
20260502000507 61 51 0.0 0.0 0.00 0.00 0.00 99 1015.3
20260502000015 61 51 0.0 2.0 0.00 0.00 0.00 99 1015.3
20260501235518 61 51 0.0 2.0 0.00 0.00 0.00 99 1015.4
20260501235011 61 51 0.0 2.0 0.00 0.00 0.00 99 1015.3
20260501234519 61 51 0.0 2.0 0.00 0.00 0.00 99 1015.5
20260501234007 61 51 0.0 2.0 0.00 0.00 0.00 99 1015.4
20260501233515 61 51 0.0 1.0 0.00 0.00 0.00 99 1015.5
20260501233022 61 51 0.0 1.0 0.00 0.00 0.00 99 1015.5
20260501232511 61 51 0.0 0.0 0.00 0.00 0.00 99 1015.5
20260501232018 61 51 0.0 3.0 0.00 0.00 0.00 99 1015.5
20260501231506 61 51 0.0 3.0 0.00 0.00 0.00 99 1015.6
20260501231015 61 51 1.0 3.0 0.00 0.00 0.00 99 1015.7
20260501230503 61 51 0.0 0.0 0.00 0.00 0.00 99 1015.8
20260501230011 61 51 0.0 0.0 0.00 0.00 0.00 99 1015.8
20260501225519 61 51 0.0 0.0 0.00 0.00 0.00 99 1015.9
20260501225004 61 51 0.0 2.0 0.00 0.00 0.00 99 1015.9
20260501224512 61 51 0.0 2.0 0.00 0.00 0.00 99 1016.0
20260501224039 61 51 0.0 0.0 0.00 0.00 0.00 99 1016.0
20260501223506 61 51 0.0 0.0 0.00 0.00 0.00 99 1016.0
20260501223013 61 51 0.0 1.0 0.00 0.00 0.00 99 1016.2
20260501222522 61 51 0.0 3.0 0.00 0.00 0.00 99 1016.2
20260501222010 61 51 0.0 4.0 0.00 0.00 0.00 99 1016.1
20260501221518 61 51 2.0 4.0 0.00 0.00 0.00 99 1016.2
20260501221006 61 51 0.0 4.0 0.00 0.00 0.00 99 1016.1
20260501220515 61 51 2.0 5.0 0.00 0.00 0.00 99 1016.2
20260501220023 61 51 1.0 4.0 0.00 0.00 0.00 99 1016.2
20260501215511 61 51 0.0 1.0 0.00 0.00 0.00 99 1016.3
20260501215017 61 51 0.0 2.0 0.00 0.00 0.00 99 1016.3
20260501214504 61 51 0.0 4.0 0.00 0.00 0.00 99 1016.4
20260501214012 61 51 0.0 4.0 0.00 0.00 0.00 99 1016.4
20260501213520 61 51 1.0 5.0 0.00 0.00 0.00 98 1016.4
20260501213009 61 51 1.0 5.0 0.00 0.00 0.00 98 1016.5
20260501212517 61 51 3.0 5.0 0.00 0.00 0.00 98 1016.4